PSLV R/B, 40720

Orbit data source: Space-Track

PSLV R/B, 40720 is space debris in SSO originally from a launch on Fri, 10 Jul 2015 UTC launched from the Sirharikota (SRI). Debris objects in space refer to the collection of defunct objects orbiting the Earth. Examples of debris include non-operational satellites, rocket bodies, and fragments generated from explosions, collisions, or faulty payload assembly.

Loading next visibility...
Identifier
40720, 2015-032F
Orbit
SSO
Country
Flag of ININ / IND
Related business
Manufacturer
VSSC/LPSC
Mission
Spacecraft
Bus & Motor
PS-4, Unknown motor
Mass
920 kg wet, 920 kg dry
Launch date (UTC)
2015-07-10 (10 years ago)
Launch vehicle
Unknown
Launch site
Sirharikota (SRI)
Object type
Payload
Rocket body
Debris
Shape & HBR
Cyl + Cyl + 2 Nozzle, 1.6 m
Radar Cross Section
3.727 m², Large (>1 m²)

Expand to show TLE details & history
Last TLE update: 9 hours ago

TLE from 9 hours ago
0 PSLV R/B
1 40720U 15032F   25296.59783700  .00001987  00000-0  23458-3 0  9997
2 40720  98.1597 255.0548 0005572 128.6930 231.4783 14.85874742556151
Epoch: 2025-10-23T14:20Z
TLE epoch observation values (Epoch: 2025-10-23T14:20:53.116Z)
Latitude
-0.00009°
Longitude
7.5787°
Altitude
616.29 km
Speed
7.55 km/s
True Right ascension
17h 00m 13s
True Declination
0° 00' 00"
Sunlit
Object was in daylight at epoch
Visualization orbit readout
Latitude
Unknown
Longitude
Unknown
Altitude
Unknown
Speed
Unknown
Apparent Right ascension
Unknown
Apparent Declination
Unknown
Sunlit
N/A
Visualization observer readout
Local Sidereal Time
19:00:08
Azimuth
Unknown
Elevation
Unknown
Doppler factor
Unknown
Orbital elements
Apogee altitude
611.779 km
Perigee altitude
603.994 km
Semi-major axis
6,986.023 km
Eccentricity
0.00056
Inclination
98.1597°
RAAN
255.0548°
Arg. of periapsis
128.693°
True anomaly
231.42837°
Mean anomaly
231.4783°
Eccentric anomaly
231.45333°
Mean motion
3.71705 °/min
Orbital period
96.85 mins
BSTAR
0.00023458
Loading maneuver chart data...
Computing Atmospheric mass density...
Loading historical data...
Loading historical data...
Loading historical data...
Loading historical data...
Loading historical data...
Loading historical data...
Loading historical data...
Other satellites on launch #32 in the year 2015 (2015-07-10 UTC)

Documentation

Showing up to 5 results
|